Accueil
METAR-TAF:

METAR-TAF

Aéroports :

Diepholz, Allemagne

latitude: 52-35N, longitude: 008-21E, altitude: 39 m

Observation

Le bulletin a été fait il y a 14 heures et 12 minutes, à 10:20 UTC
Vent 9 kt de est
Température 0°C
Humidité 59%
Pression 1026 hPa
Visibilité 10 km ou plus
Nuages épars à une hauteur de 2000 ft

METAR: ETND 231020Z 08009KT 9999 SCT020 M00/M07 Q1026 BLU+

Heure: 01:32 (00:32 UTC)


TAF: absent

Observations et prévisions météorologiques de plus de 4000 aéroports (messages METAR et TAF).

Les stations disponibles sont représentées par des disques jaunes et rouges sur la carte.

Passer la souris dessus pour voir le nom de la station.

Cliquer dessus pour voir les observations et prévisions météorologiques.

Pour changer de carte: cliquez sur les boutons verts avec une croix noire pour zoomer, sur le bouton vert avec un tiret pour effectuer un zoom arrière, ou sur les flèches vertes pour les cartes adjacentes.


METAR-TAF: